User: anonymous   Login
Location: Bergnershof
(48.9468°N, 10.9431°E)
Time: 19:33:25
(UTC+00:00)
Language:

Cosmos 2333 Rocket - Orbit

View from above orbital plane
View from above orbital plane
View from above satellite
View from above satellite

Ground track
Ground track

The orbit data is extracted from the following two-line orbital elements,

1 24298U 96051B   21216.17437867 -.00000188  00000-0 -75536-4 0  9990
2 24298  70.8276 120.2885 0013461 103.6757 256.5863 14.12429173284639
Epoch (UTC): 04 August 2021 04:11:06
Eccentricity: 0.0013461
inclination: 70.8276°
perigee height: 841 km
apogee height: 861 km
right ascension of ascending node: 120.2885°
argument of perigee: 103.6757°
revolutions per day: 14.12429173
mean anomaly at epoch: 256.5863°
orbit number at epoch: 28463

The dashed part of the orbit path shows where the satellite is in the earth's shadow,  

DLR